EHI
0 0 0 0 0 0 0 0 0 0 0 0 1 3 5 8 14 16 13 10 12 14 15 13 11 10 10 8 6 5 6 5 4 4 4 5 5 4 3 2 2 2 1 0
0 0 0 0 0 0 0 0 0 0 0 0 2 5 6 10 15 16 14 11 12 14 14 12 9 8 8 7 6 5 6 5 4 2 3 4 6 6 5 5 5 4 2 0
0 0 0 0 0 0 0 0 0 0 0 2 4 5 7 10 14 15 13 10 10 11 11 9 7 6 6 6 6 6 7 6 5 4 3 4 6 7 7 6 6 5 3 1
0 0 0 0 0 0 0 0 0 1 2 4 4 4 5 7 10 12 10 8 8 8 7 5 4 5 6 7 8 8 9 9 9 7 5 4 5 6 6 5 4 4 3 2
0 0 0 0 0 0 0 0 0 2 5 5 3 3 3 4 6 9 8 7 7 6 3 2 2 4 5 8 10 10 10 10 9 7 5 3 3 4 4 3 4 5 5 4
0 0 0 0 0 0 0 0 1 4 6 5 3 3 2 2 4 6 6 6 6 5 2 0 1 2 4 7 9 9 9 8 6 5 3 2 1 2 3 3 4 5 5 4
0 0 0 0 0 0 0 0 2 4 5 3 3 3 3 3 5 6 5 5 5 4 2 1 1 1 2 4 5 6 6 5 4 3 2 2 1 1 2 3 3 4 4 4
0 0 0 0 0 0 0 0 2 3 3 3 3 3 3 4 6 7 6 6 6 5 4 3 3 2 1 2 2 3 4 4 3 3 2 1 0 1 2 3 3 3 2 2
0 0 0 0 0 0 0 0 1 2 2 3 3 3 3 4 5 6 6 6 6 6 5 5 5 4 3 2 1 1 3 3 3 3 3 2 1 0 1 1 2 2 1 1
0 0 0 0 0 0 0 0 0 1 1 1 1 1 2 2 4 5 5 5 5 5 5 5 5 5 3 2 1 1 2 3 3 2 2 2 1 0 0 0 1 1 0 0
0 0 0 0 0 0 0 0 0 0 0 0 0 0 1 3 4 5 5 4 4 4 4 4 3 3 1 1 1 1 2 2 1 1 1 1 0 0 0 0 0 0 0 0
0 0 0 0 0 0 0 0 0 0 0 0 0 0 1 4 5 5 4 4 3 3 3 2 1 1 0 0 0 0 1 1 0 0 0 0 0 0 0 0 0 0 0 0
0 0 0 0 0 0 0 0 0 0 0 0 0 0 1 3 4 4 3 3 3 2 2 1 0 0 0 0 0 0 0 0 0 0 0 0 0 0 0 0 0 0 0 0
0 0 0 0 0 0 0 0 0 0 0 0 0 0 0 1 2 2 2 2 1 1 1 0 0 0 0 0 0 0 0 0 0 0 0 0 0 0 0 0 0 0 0 0
0 0 0 0 0 0 0 0 0 0 0 0 0 0 0 0 1 1 1 1 0 0 0 0 0 0 0 0 0 0 0 0 0 0 0 0 0 0 0 0 0 0 0 0
0 0 0 0 0 0 0 0 0 0 0 0 0 0 0 0 0 0 0 0 0 0 0 0 0 0 0 0 0 0 0 0 0 0 0 0 0 0 0 0 0 0 0 0
0 0 0 0 0 0 0 0 0 0 0 0 0 0 0 0 0 0 0 0 0 0 0 0 0 0 0 0 0 0 0 0 0 0 0 0 0 0 0 0 0 0 0 0
0 0 0 0 0 0 0 0 0 0 0 0 0 0 0 0 0 0 0 0 0 0 0 0 0 0 0 0 0 0 0 0 0 0 0 0 0 0 0 0 0 0 0 0
0 0 0 0 0 0 0 0 0 0 0 0 0 0 0 0 0 0 0 0 0 0 0 0 0 0 0 0 0 0 0 0 0 0 0 0 0 0 0 0 0 0 0 0
0 0 0 0 0 0 0 0 0 0 0 0 0 0 0 0 0 0 0 0 0 0 0 0 0 0 0 0 0 0 0 0 0 0 0 0 0 0 0 0 0 0 0 0
0 0 0 0 0 0 0 0 0 0 0 0 0 0 0 0 0 0 0 0 0 0 0 0 0 0 0 0 0 0 0 0 0 0 0 0 0 0 0 0 0 0 0 0
0 0 0 0 0 0 0 0 0 0 0 0 0 0 0 0 0 0 0 0 0 0 0 0 0 0 0 0 0 0 0 0 0 0 0 0 0 0 0 0 0 0 0 0
0 0 0 0 0 0 0 0 0 0 0 0 0 0 0 0 0 0 0 0 0 0 0 0 0 0 0 0 0 0 0 0 0 0 0 0 0 0 0 0 0 0 0 0
0 0 0 0 0 0 0 0 0 0 0 0 0 0 0 0 0 0 0 0 0 0 0 0 0 0 0 0 0 0 0 0 0 0 0 0 0 0 0 0 0 0 0 0
0 0 0 0 0 0 0 0 0 0 0 0 0 0 0 0 0 0 0 0 0 0 0 0 0 0 0 0 0 0 0 0 0 0 0 0 0 0 0 0 0 0 0 0
0 0 0 0 0 0 0 0 0 0 0 0 0 0 0 0 0 0 0 0 0 0 0 0 0 0 0 0 0 0 0 0 0 0 0 0 0 0 0 0 0 0 0 0
0 0 0 0 0 0 0 0 0 0 0 0 0 0 0 0 0 0 0 0 0 0 0 0 0 0 0 0 0 0 0 0 0 0 0 0 0 0 0 0 0 0 0 0
Wind_Speed
3 3 3 3 4 4 5 7 8 7 6 7 5 4 3 1 1 2 2 2 2 2 1 2 2 2 2 2 2 3 3 3 3 2 2 2 3 3 2 3 3 3 3 3
0 1 2 1 2 4 4 4 4 2 5 5 2 1 1 1 2 2 2 2 2 2 1 1 2 3 2 2 1 2 2 2 2 1 1 2 2 2 2 2 2 2 2 3
3 1 2 3 5 5 3 3 6 6 6 1 1 2 3 3 2 3 3 2 2 3 3 3 2 2 3 2 1 1 1 1 2 2 2 2 2 1 2 3 2 2 3 3
3 2 5 8 3 3 4 1 3 3 3 4 4 3 2 2 3 3 2 1 1 1 1 1 1 1 2 2 2 1 1 2 2 2 2 2 1 2 2 2 3 3 4 4
4 3 3 4 1 3 4 1 1 3 3 3 3 4 3 1 0 2 2 1 1 1 1 1 0 1 2 1 1 1 1 2 2 2 2 2 2 3 2 2 3 4 3 4
5 4 6 7 3 1 4 2 2 4 4 4 5 3 3 2 1 0 1 1 1 1 2 2 1 2 2 1 1 1 2 2 2 2 2 3 3 3 2 2 4 4 4 4
4 3 6 5 3 3 4 7 3 4 5 6 5 5 4 2 1 1 1 1 2 3 2 1 1 2 2 1 1 2 2 2 2 2 2 2 2 1 2 2 3 4 4 4
3 3 6 3 2 5 6 2 3 4 4 4 3 2 2 3 2 2 2 3 3 3 2 2 2 2 1 1 2 1 1 1 2 1 2 1 1 2 2 2 3 3 3 4
6 6 5 3 4 3 3 3 2 3 3 5 4 2 2 2 2 2 2 2 2 2 2 2 2 1 0 2 2 1 1 2 2 2 2 2 1 2 2 2 2 3 2 3
1 4 4 3 2 1 1 2 2 3 3 4 4 4 3 3 2 2 1 1 1 2 2 1 1 1 1 2 2 1 1 2 2 2 3 2 2 2 2 2 2 2 3 3
2 4 3 3 2 1 0 2 2 2 2 3 4 3 3 3 2 2 1 0 1 2 1 1 1 1 2 2 1 1 2 2 2 2 2 3 2 2 3 3 3 3 3 3
6 6 4 4 3 1 1 1 2 3 2 1 3 3 3 3 2 2 2 1 1 0 0 1 1 2 2 2 1 1 2 3 2 2 2 2 2 3 3 3 4 4 4 4
5 3 4 3 2 1 1 1 0 1 3 2 1 2 3 2 1 1 2 2 2 2 1 1 1 2 3 2 1 1 2 3 3 2 2 2 2 3 4 4 4 4 5 5
3 1 1 1 1 1 0 0 1 1 1 2 3 3 3 2 1 2 2 2 2 1 1 1 1 3 3 2 1 2 3 3 3 2 2 2 3 3 3 3 4 4 4 5
2 2 3 2 0 1 1 2 3 2 1 1 2 2 3 3 2 2 2 1 1 1 1 1 2 3 3 2 2 3 3 2 2 2 2 2 3 3 3 3 3 4 4 4
1 1 2 3 2 1 1 2 3 2 1 1 1 2 2 2 2 1 1 1 2 2 3 3 3 4 3 2 2 2 2 3 3 2 2 2 2 3 3 3 3 4 4 4
3 2 2 2 2 2 2 2 3 3 2 2 2 2 2 2 1 0 1 2 2 2 3 3 4 4 3 2 2 2 2 2 3 2 2 2 3 3 3 3 3 4 4 4
5 6 5 5 4 3 2 1 2 2 2 2 2 2 2 2 2 2 2 1 1 2 3 3 4 3 3 3 2 2 1 2 2 2 2 2 3 3 3 3 4 4 4 4
2 3 3 4 4 4 3 2 2 2 1 2 2 2 2 2 2 2 1 1 1 3 4 4 4 4 3 3 3 2 2 2 2 2 2 3 3 2 2 3 3 4 4 3
1 2 2 2 2 2 2 2 1 1 1 2 2 1 1 2 2 1 1 2 3 3 4 4 3 3 3 3 2 2 2 2 3 2 2 2 3 3 3 3 3 4 4 4
1 1 1 1 1 1 2 2 2 1 1 2 2 2 2 2 2 1 1 2 4 3 2 3 2 2 2 2 2 1 1 2 2 2 2 3 3 3 3 3 4 4 4 4
1 1 1 1 1 0 1 1 2 2 1 1 1 1 1 1 2 1 2 3 3 2 2 2 2 3 3 2 1 1 1 1 2 2 2 2 3 3 3 4 4 4 4 4
0 1 1 1 2 1 0 0 1 2 2 2 2 2 2 2 2 2 3 3 2 2 2 2 2 3 2 1 1 1 1 2 2 2 2 2 3 3 3 4 4 4 3 3
1 1 1 1 1 2 1 2 1 1 1 2 2 3 2 1 2 2 3 3 3 2 1 2 2 2 2 1 1 1 1 2 2 2 2 2 3 3 3 3 3 3 3 3
0 0 0 1 2 2 2 2 0 1 1 1 1 2 2 2 2 2 2 1 2 1 1 1 1 1 1 1 1 1 1 2 2 2 2 2 3 3 3 3 3 3 3 2
1 1 1 2 2 2 2 1 1 1 1 1 2 2 2 2 1 1 1 1 1 1 1 1 1 1 1 1 2 2 2 2 2 2 2 2 2 2 2 2 3 3 2 2
0 0 0 1 1 1 1 1 2 2 2 2 2 2 2 1 1 1 1 1 1 1 1 1 1 1 2 2 2 2 2 2 2 2 2 2 2 3 3 3 3 2 2 2
Wind_Direction
207 213 171 180 188 177 179 184 191 222 216 241 239 224 232 223 136 87 95 115 146 168 173 161 160 165 161 172 171 165 171 191 221 236 237 234 236 243 242 238 241 233 225 238
252 234 176 184 210 191 202 187 198 198 250 255 253 112 86 126 136 136 167 183 187 165 170 178 181 183 171 181 177 149 169 209 232 231 233 239 244 246 240 237 236 227 230 237
213 247 85 250 233 199 189 187 173 201 229 204 127 167 187 188 178 193 204 201 199 193 195 205 207 190 185 186 160 163 194 224 228 221 239 248 251 253 245 242 233 237 243 240
138 111 210 239 243 165 150 195 191 189 190 167 171 188 175 174 184 195 198 203 236 234 215 217 193 169 163 160 152 163 219 243 245 226 237 246 243 250 261 254 241 242 246 247
126 164 254 287 239 166 158 245 219 166 160 133 116 72 14 338 183 188 185 193 211 211 199 176 135 131 128 129 136 149 238 252 255 242 244 249 245 248 249 249 247 243 251 253
125 152 215 238 269 217 113 255 245 174 174 156 119 114 250 248 184 117 75 85 83 65 60 69 38 87 103 102 102 243 256 261 260 250 244 255 255 253 250 250 252 253 254 251
142 189 247 253 287 104 159 232 215 183 182 167 175 193 204 178 152 105 74 70 83 85 75 43 60 98 99 77 275 271 279 285 287 269 256 258 261 256 259 264 269 263 262 259
138 176 248 290 114 173 214 212 157 167 177 169 168 155 133 132 124 103 74 58 72 80 55 22 39 91 79 304 288 300 291 288 294 295 286 283 264 268 263 259 272 275 272 279
185 212 248 269 240 245 179 159 174 168 169 153 148 149 134 134 131 126 112 100 89 95 61 25 27 76 61 303 320 330 334 317 317 323 318 305 283 284 291 281 269 276 275 276
262 278 287 296 294 319 142 155 163 158 154 150 157 161 154 154 151 141 125 128 116 107 86 16 349 1 280 298 328 3 343 323 323 324 323 325 313 286 275 276 278 279 277 279
264 277 319 327 314 297 62 113 116 110 144 169 159 164 168 164 160 156 147 131 129 137 147 278 333 341 317 309 339 352 325 318 318 314 308 316 316 298 278 267 261 264 270 272
218 226 200 246 274 282 139 144 145 125 108 136 166 172 158 159 168 155 152 144 150 170 211 284 329 328 314 307 316 344 320 310 301 296 300 300 298 310 303 271 293 278 268 271
222 221 208 234 279 274 176 198 182 155 162 159 154 153 150 157 167 161 172 185 197 211 228 255 287 299 296 287 263 236 249 270 279 284 291 296 297 297 304 310 306 298 290 283
219 165 215 238 241 270 165 129 79 75 112 142 145 139 137 138 152 181 212 214 201 194 220 235 260 289 296 299 280 266 262 265 267 274 283 285 285 285 286 295 310 314 305 292
257 218 202 198 117 53 84 108 104 101 96 89 114 134 147 157 177 209 232 208 162 172 265 267 270 283 295 300 283 267 265 266 260 264 272 277 280 282 284 284 288 297 307 311
299 61 132 138 151 148 116 134 138 161 155 138 135 153 166 163 170 191 214 186 178 231 261 266 271 277 279 271 266 265 263 268 265 264 271 278 281 282 284 284 287 293 298 302
143 179 175 173 190 194 191 187 179 180 175 174 180 162 134 126 130 199 266 255 225 245 258 259 269 278 277 257 247 257 268 280 288 285 274 270 273 275 277 278 282 287 287 289
193 199 192 180 179 183 198 188 179 177 181 193 169 149 152 172 200 233 254 278 309 302 287 277 277 286 284 273 252 242 247 263 270 270 273 272 273 272 275 280 283 287 293 297
180 185 186 180 177 173 181 189 197 207 188 160 160 181 203 216 218 229 234 236 266 286 292 295 296 293 283 270 259 238 243 251 261 269 269 274 277 278 278 282 286 288 291 296
120 145 160 168 169 166 173 178 163 161 167 152 149 164 214 247 241 237 241 250 248 251 269 291 299 295 289 279 271 244 239 244 249 257 264 269 274 280 283 285 286 289 292 293
112 111 116 137 153 161 170 164 150 161 182 157 161 186 218 255 254 219 220 279 288 289 291 294 299 299 298 291 289 261 247 248 250 250 256 264 274 282 285 287 288 289 289 289
130 130 139 138 126 158 199 170 166 171 169 167 178 187 200 262 277 274 252 248 266 284 291 283 288 294 297 300 285 260 261 265 263 263 264 267 273 280 285 286 284 284 283 282
225 216 203 196 197 219 270 202 184 183 189 197 204 215 224 238 231 226 272 274 262 267 274 271 285 301 314 334 305 286 285 283 278 271 270 272 272 275 279 283 284 284 284 288
303 276 250 200 138 134 190 251 239 223 221 224 224 220 217 238 281 262 248 259 259 257 263 264 280 312 341 351 312 293 294 293 288 279 274 274 276 278 279 282 286 289 290 293
250 254 170 148 161 195 211 217 243 278 263 281 289 268 241 218 230 264 273 265 258 255 278 282 296 326 354 334 308 299 291 283 280 279 277 280 281 280 280 284 287 289 295 298
196 215 220 214 206 200 194 180 194 237 239 283 300 289 283 280 261 258 258 258 264 261 270 286 297 303 300 291 290 295 298 300 298 289 284 285 286 288 291 296 297 295 299 304
355 343 352 340 312 233 193 187 205 234 236 232 255 269 270 277 291 297 289 283 276 272 277 282 285 285 290 295 299 303 303 300 296 294 293 292 291 289 292 296 296 299 305 306